Mill Rose Farm Restricted Landing Area

Jump to: basic info | weather | runways | comments

Related pages: nearby airports | nearby navaids | notams | map

Basic information (top)

Codes: IL68
Location: lon 42.077202, lat -88.159798, elev 850 ft / 259 m msl
Status: small_airport

Weather (top)

Current conditions for Dupage Airport 11nm (20km) SSW (rec'd 2014/10/24 22:52Z):

KDPA 242252Z 20003KT 10SM FEW090 16/08 A2995 RMK AO2 SLP141 T01560083

Airport forecast for Dupage Airport 11nm (20km) SSW (rec'd 2014/10/24 18:33Z):

TAF KDPA 241732Z 2418/2518 19005KT P6SM SCT020 BKN250 
     FM250000 22004KT P6SM BKN080 
     FM250300 21005KT P6SM BKN030 
     FM250600 23004KT 4SM BR SCT015 BKN030 
     FM251500 30007KT P6SM FEW250

Runways (top)

N/S: 2,500 x 100 ft (762 x 30 m) — grass — lighted

Latest comments (top)

No comments yet for Mill Rose Farm Restricted Landing Area

More... (top)

See also NOTAMs and nearby airports and navaids, or visit the Mill Rose Farm Restricted Landing Area page at the main OurAirports website..